Date,TemperatureHighF,TemperatureAvgF,TemperatureLowF,DewpointHighF,DewpointAvgF,DewpointLowF,HumidityHigh,HumidityAvg,HumidityLow,PressureMaxIn,PressureMinIn,WindSpeedMaxMPH,WindSpeedAvgMPH,GustSpeedMaxMPH,PrecipitationSumIn
2013-1-1,38.5,30.6,20.0,27.8,20.7,8.9,83,67,55,29.93,29.73,23,3,23,0.00
2013-1-2,19.8,15.2,12.2,9.1,6.6,5.0,76,69,62,29.97,29.92,5,1,5,0.00
2013-1-3,23.7,15.0,4.2,11.0,3.3,-3.6,74,60,39,30.15,30.00,12,1,12,0.00
2013-1-4,38.2,28.4,15.8,26.3,20.8,10.2,86,73,59,30.00,29.83,19,2,19,0.00
2013-1-5,41.7,32.3,25.3,27.4,22.6,18.2,80,68,52,30.27,29.87,16,2,16,0.00
2013-1-6,41.4,32.8,25.3,31.0,26.4,19.1,90,78,64,30.24,29.95,15,1,15,0.00
2013-1-7,41.6,34.6,28.1,30.7,26.0,18.9,86,72,55,30.40,29.97,12,2,12,0.00
2013-1-8,44.7,36.3,24.0,31.5,28.0,19.6,87,73,58,30.37,30.26,15,2,15,0.00
2013-1-9,43.3,35.7,26.1,35.9,29.8,23.0,90,80,63,30.40,29.99,18,2,18,0.00
2013-1-10,44.9,39.7,32.0,31.0,26.9,24.3,76,60,48,30.54,30.07,26,2,26,0.00
2013-1-11,38.2,33.6,28.0,34.4,28.1,22.9,93,80,70,30.53,30.22,5,0,5,0.14
2013-1-12,41.8,39.1,36.0,40.2,37.4,34.2,94,94,93,30.23,30.13,4,0,4,0.03
2013-1-13,50.2,45.2,39.8,48.5,43.5,38.2,94,94,94,30.16,29.99,14,1,14,0.01
2013-1-14,57.9,50.0,40.6,52.7,43.4,30.8,94,79,50,30.25,29.86,18,2,18,0.00
2013-1-15,41.2,37.6,33.3,31.7,28.1,26.0,76,69,58,30.32,30.21,7,0,7,0.00
2013-1-16,33.7,32.5,30.1,31.2,29.2,26.0,93,88,74,30.25,29.82,9,0,9,0.37
2013-1-17,40.9,34.2,28.8,36.4,28.5,18.6,93,80,62,30.09,29.84,14,1,14,0.00
2013-1-18,29.9,22.6,17.1,19.2,7.5,1.7,76,52,38,30.45,30.05,22,2,22,0.00
2013-1-19,45.9,35.8,18.7,32.5,25.2,9.2,82,66,50,30.39,29.89,19,3,19,0.00
2013-1-20,51.5,40.0,28.1,34.2,27.7,12.8,82,62,41,29.93,29.56,25,4,25,0.00
2013-1-21,28.6,25.0,20.5,20.0,13.5,8.4,88,63,45,30.10,29.80,18,2,18,0.00
2013-1-22,25.7,19.8,12.8,19.9,8.9,0.8,89,64,41,30.09,29.75,17,3,17,0.04
2013-1-23,16.3,11.4,7.1,4.1,-2.4,-6.1,72,54,41,30.15,30.07,18,3,18,0.00
2013-1-24,19.2,11.5,3.3,-0.7,-4.3,-6.8,63,49,35,30.25,30.08,20,3,20,0.00
2013-1-25,23.4,16.3,8.2,13.1,-0.5,-6.3,83,48,31,30.33,30.06,12,2,12,0.00
2013-1-26,24.9,17.2,9.7,12.9,5.9,-2.3,85,63,40,30.25,30.01,15,2,15,0.00
2013-1-27,29.2,20.4,12.4,8.9,5.2,2.0,70,53,36,30.48,30.25,12,2,12,0.00
2013-1-28,31.4,24.0,17.5,25.3,15.4,5.5,91,71,43,30.47,30.01,11,0,11,0.12
2013-1-29,33.8,30.3,25.7,30.8,27.7,23.2,93,90,85,30.20,30.01,4,0,4,0.04
2013-1-30,33.6,32.9,32.6,31.8,31.1,30.8,93,93,93,30.16,30.01,2,0,2,0.02
2013-1-31,59.5,46.8,31.4,57.5,38.4,18.7,94,74,49,29.59,28.98,27,6,27,0.39
2013-2-1,33.9,28.3,21.9,20.9,13.0,6.5,68,53,39,30.09,29.59,23,4,23,0.00
2013-2-2,30.2,24.7,17.2,15.1,10.6,6.0,66,55,44,30.26,30.06,16,2,16,0.00
2013-2-3,28.4,24.8,21.3,23.0,20.3,15.4,88,83,65,30.07,29.74,7,1,7,0.02
2013-2-4,29.9,23.0,19.8,20.7,15.8,12.3,89,74,51,29.81,29.73,19,3,19,0.00
2013-2-5,27.3,24.4,20.7,21.5,16.4,11.1,88,72,62,30.03,29.94,5,0,5,0.00
2013-2-6,38.4,30.2,24.4,27.2,21.3,7.7,90,71,44,30.31,29.92,19,2,19,0.03
2013-2-7,31.4,25.0,18.2,14.4,8.9,6.3,67,51,36,30.53,30.30,9,1,9,0.00
2013-2-8,32.8,27.4,17.7,30.4,23.3,13.7,92,85,62,30.49,29.59,14,1,14,0.91
2013-2-9,26.2,19.8,12.8,19.0,14.4,5.2,91,80,69,30.21,29.56,16,0,16,0.70
2013-2-10,12.8,12.3,11.9,5.2,4.7,4.4,72,71,70,30.24,30.21,0,0,0,0.00
2013-2-11,41.7,31.8,18.3,39.8,28.6,11.7,93,88,75,30.36,29.61,11,1,11,0.17
2013-2-12,43.3,37.4,31.2,38.2,30.5,25.4,93,76,60,29.89,29.62,22,3,22,0.00
2013-2-13,45.9,34.8,26.4,29.6,25.8,21.3,84,70,51,29.88,29.69,11,1,11,0.00
2013-2-14,47.4,35.7,28.4,27.3,24.6,21.8,82,66,42,30.00,29.72,9,1,9,0.00
2013-2-15,51.4,37.9,25.9,36.2,30.8,22.6,92,77,55,30.00,29.91,23,1,23,0.00
2013-2-16,38.2,34.5,30.1,32.6,28.6,20.2,91,79,61,29.96,29.69,14,1,14,0.04
2013-2-17,30.0,21.9,16.3,22.1,12.5,3.4,87,68,48,29.71,29.40,25,4,25,0.08
2013-2-18,31.5,21.9,13.3,9.7,4.9,2.0,61,48,34,30.18,29.71,23,4,23,0.00
2013-2-19,46.6,34.9,19.5,39.9,25.4,4.6,93,69,50,30.19,29.59,14,1,14,0.22
2013-2-20,39.8,31.9,25.1,37.9,21.7,13.2,93,67,47,29.80,29.55,22,5,22,0.00
2013-2-21,35.5,27.9,23.6,17.9,16.0,13.7,72,61,45,30.20,29.78,19,4,19,0.00
2013-2-22,40.6,31.2,22.6,26.0,22.1,16.8,82,70,49,30.39,30.20,10,1,10,0.00
2013-2-23,37.7,33.3,28.9,31.1,28.5,23.3,91,82,75,30.34,29.91,11,1,11,0.19
2013-2-24,34.2,33.2,31.4,32.4,31.2,29.3,93,92,91,29.91,29.69,12,1,12,0.50
2013-2-25,41.4,34.8,28.9,35.6,31.1,26.9,93,87,74,30.25,29.90,7,0,7,0.00
2013-2-26,45.9,36.1,30.1,36.3,30.4,27.8,92,80,57,30.35,30.15,10,1,10,0.00
2013-2-27,40.6,37.8,34.7,38.7,35.7,30.7,93,92,85,30.16,29.58,19,3,19,0.90
2013-2-28,45.2,37.8,33.3,39.6,34.8,31.5,94,89,78,29.65,29.53,6,0,6,0.00
2013-3-1,43.7,37.7,33.0,33.8,31.0,28.1,92,77,62,29.69,29.53,15,1,15,0.00
2013-3-2,42.6,37.1,31.7,30.9,28.7,26.6,82,72,60,29.68,29.63,10,1,10,0.00
2013-3-3,43.4,35.9,31.8,32.4,28.9,25.7,92,76,62,29.65,29.57,11,1,11,0.00
2013-3-4,41.2,34.4,28.4,28.2,25.3,21.5,81,70,54,29.75,29.59,18,3,18,0.00
2013-3-5,32.2,31.6,31.4,24.7,24.5,24.1,76,75,73,29.79,29.75,5,1,5,0.00
2013-3-6,39.3,35.8,33.6,34.9,32.5,30.5,92,88,77,30.10,30.04,27,4,27,0.09
2013-3-7,34.6,32.2,30.1,31.5,29.4,27.8,91,89,82,30.06,29.98,20,4,20,0.16
2013-3-8,33.9,31.5,29.5,32.8,29.1,27.2,96,91,84,30.15,29.94,18,3,18,0.98
2013-3-9,53.2,36.0,27.0,34.3,27.7,22.8,89,74,43,30.36,30.15,16,1,16,0.00
2013-3-10,45.7,35.0,26.0,34.7,29.5,23.7,92,81,62,30.42,30.30,5,1,6,0.00
2013-3-11,53.9,41.6,33.8,40.6,35.8,30.6,92,81,55,30.33,30.16,12,2,12,0.00
2013-3-12,52.6,47.6,40.1,50.6,45.5,38.0,98,92,87,30.17,29.73,19,2,19,0.24
2013-3-13,53.6,43.0,34.4,48.2,32.4,23.1,93,69,38,29.79,29.70,15,2,15,0.00
2013-3-14,37.1,31.3,22.9,25.7,17.6,8.2,71,57,44,29.85,29.72,19,4,19,0.00
2013-3-15,41.9,29.3,20.2,25.7,13.8,9.5,67,54,33,29.88,29.65,16,3,16,0.00
2013-3-16,40.4,34.0,27.6,28.2,18.6,12.3,82,55,33,29.88,29.69,13,1,13,0.00
2013-3-17,41.6,31.8,25.1,19.6,14.1,7.3,72,49,30,30.32,29.88,16,2,16,0.00
2013-3-18,38.8,28.8,18.5,25.7,11.4,3.3,87,50,30,30.47,30.24,14,1,14,0.01
2013-3-19,35.7,32.2,28.5,33.6,30.0,25.6,92,92,86,30.23,29.61,15,2,15,1.01
2013-3-20,42.4,31.9,24.4,26.7,22.7,19.8,91,71,48,29.82,29.70,22,2,22,0.00
2013-3-21,36.9,30.4,24.5,28.9,23.5,19.1,92,76,52,29.83,29.62,6,1,6,0.00
2013-3-22,44.4,33.7,26.3,25.6,21.9,18.5,88,63,40,29.76,29.61,17,3,17,0.00
2013-3-23,43.9,35.0,28.4,25.7,22.6,19.9,78,61,43,29.81,29.66,22,4,22,0.00
2013-3-24,50.9,38.8,30.6,28.7,25.0,21.1,76,59,39,29.83,29.73,16,2,16,0.00
2013-3-25,43.7,37.1,30.6,33.8,29.7,25.0,81,75,60,29.77,29.51,12,1,12,0.00
2013-3-26,48.9,40.4,34.4,32.0,27.6,23.3,81,62,41,29.79,29.54,9,1,9,0.00
2013-3-27,56.6,42.8,30.9,32.6,26.7,21.8,73,54,35,29.87,29.75,9,0,9,0.00
2013-3-28,49.1,42.3,36.1,35.4,33.6,31.5,88,72,51,30.03,29.87,10,1,10,0.01
2013-3-29,58.1,46.4,36.6,38.3,33.3,30.7,83,62,37,30.06,29.97,14,1,14,0.00
2013-3-30,59.6,47.7,36.6,33.8,27.0,19.4,77,48,24,30.10,30.01,6,0,6,0.00
2013-3-31,62.7,46.7,30.9,40.0,29.3,22.3,82,54,27,30.12,29.79,4,0,4,0.01
2013-4-1,65.2,47.5,34.3,49.3,37.8,15.5,92,71,43,29.80,29.51,21,2,21,0.04
2013-4-2,43.1,34.5,28.3,22.3,17.3,13.9,66,50,34,29.97,29.80,22,5,22,0.01
2013-4-3,47.2,36.8,29.8,20.0,16.8,13.9,62,45,29,30.17,29.94,22,5,22,0.00
2013-4-4,56.9,41.5,27.4,28.3,20.5,15.3,69,46,22,30.31,30.06,15,2,15,0.00
2013-4-5,60.9,45.7,35.8,34.3,28.9,23.3,77,55,24,30.06,29.63,16,2,16,0.00
2013-4-6,48.1,38.6,31.9,27.2,14.9,6.1,62,40,21,30.34,29.88,17,2,17,0.00
2013-4-7,56.1,42.4,27.3,40.5,29.3,15.0,84,62,33,30.34,30.01,21,2,21,0.00
2013-4-8,66.5,52.8,41.7,43.8,41.3,35.9,92,68,37,30.09,29.96,7,1,7,0.00
2013-4-9,73.8,57.7,46.3,57.0,45.7,40.4,93,67,40,30.09,29.86,17,2,17,0.02
2013-4-10,66.8,53.0,45.0,52.2,46.9,42.5,93,81,58,30.02,29.85,7,1,7,0.17
2013-4-11,54.1,47.2,39.1,46.2,41.1,29.4,93,81,50,30.15,29.82,12,1,12,0.07
2013-4-12,40.0,38.4,36.5,37.5,35.7,32.6,93,90,76,30.16,29.79,20,2,20,0.57
2013-4-13,53.9,44.2,35.5,42.6,37.2,33.5,93,78,56,29.94,29.75,10,1,10,0.02
2013-4-14,54.4,45.1,38.2,40.3,34.4,28.4,90,68,44,30.23,29.92,17,2,17,0.00
2013-4-15,60.2,46.1,34.4,41.0,33.9,28.9,84,64,40,30.40,30.22,3,0,4,0.00
2013-4-16,65.5,51.3,36.6,51.0,43.3,34.3,97,76,51,30.41,30.07,18,2,18,0.00
2013-4-17,68.3,58.7,48.7,52.2,40.6,31.3,89,55,29,30.34,30.07,15,2,15,0.00
2013-4-18,48.4,48.4,48.4,33.0,33.0,33.0,55,55,55,30.34,30.34,0,0,0,0.00
2013-5-4,64.2,53.4,39.6,49.1,40.0,32.2,92,62,38,30.35,30.30,4,2,9,0.00
2013-5-5,65.8,48.7,37.0,47.3,40.7,34.6,92,75,52,30.33,30.25,3,1,7,0.00
2013-5-6,73.5,53.8,34.6,53.4,44.6,32.5,94,74,41,30.30,30.14,3,1,9,0.00
2013-5-7,78.7,62.1,44.5,60.2,52.7,41.9,92,74,48,30.18,30.09,3,1,9,0.00
2013-5-8,73.1,62.6,54.5,63.1,58.0,52.2,93,86,66,30.19,30.04,5,1,11,0.12
2013-5-9,67.9,60.5,57.1,62.0,58.0,55.1,94,92,76,30.05,29.89,3,0,4,0.59
2013-5-10,80.6,66.0,52.5,63.7,57.1,50.8,94,75,46,29.96,29.89,2,0,7,0.01
2013-5-11,70.3,62.7,57.7,63.5,58.9,54.6,93,87,77,29.92,29.70,7,1,12,0.06
2013-5-12,73.0,60.9,49.3,61.6,52.6,35.2,93,76,48,29.83,29.57,16,1,16,0.07
2013-5-13,61.9,49.5,39.7,39.6,34.9,30.3,81,59,35,30.04,29.82,6,0,6,0.00
2013-5-14,61.6,49.4,38.6,39.4,35.2,30.6,82,60,35,30.06,29.98,12,1,12,0.00
2013-5-15,66.5,52.4,37.8,51.9,42.3,32.8,91,71,37,30.06,29.68,13,1,13,0.04
2013-5-16,84.3,67.1,50.7,52.4,46.5,40.0,92,53,25,29.80,29.64,19,1,19,0.00
2013-5-17,71.7,59.6,49.7,49.8,44.4,40.1,80,59,39,30.22,29.80,16,1,16,0.00
2013-5-18,73.3,59.6,44.8,51.2,46.2,40.4,91,65,34,30.31,30.22,8,0,8,0.00
2013-5-19,74.7,58.4,47.5,56.3,51.0,44.6,93,78,50,30.35,30.22,12,0,12,0.10
2013-5-20,83.3,68.1,55.4,68.7,61.9,53.4,94,82,59,30.22,29.92,14,1,14,0.03
2013-5-21,91.8,66.1,51.5,73.8,60.4,49.5,93,83,52,30.00,29.83,5,0,5,1.20
2013-5-22,70.4,58.3,50.2,66.0,55.3,48.3,94,90,82,30.06,29.88,4,0,4,0.09
2013-5-23,76.3,65.1,55.2,70.3,62.0,53.2,94,90,80,29.93,29.80,1,0,1,0.22
2013-5-24,69.3,62.2,48.8,66.2,59.8,46.6,93,92,87,29.82,29.66,0,0,0,0.92
2013-5-25,51.6,47.4,40.8,49.3,45.2,38.7,93,92,91,29.82,29.72,1,0,1,0.35
2013-5-26,59.2,48.6,39.6,46.3,41.2,37.1,92,77,53,30.12,29.73,0,0,0,0.03
2013-5-27,74.8,57.8,40.9,48.8,42.9,37.8,91,62,32,30.17,30.08,0,0,0,0.00
2013-5-28,77.4,61.3,46.4,56.3,48.7,42.6,87,66,34,30.24,30.15,0,0,0,0.00
2013-5-29,72.3,63.2,57.6,67.5,59.9,54.7,92,89,83,30.19,29.99,0,0,0,0.96
2013-5-30,88.5,74.0,62.1,75.0,67.2,59.3,92,80,59,30.09,30.00,0,0,0,0.01
2013-5-31,94.8,78.3,66.8,75.2,68.3,63.3,89,73,45,30.09,29.95,0,0,0,0.00
2013-6-1,72.6,70.9,68.9,65.0,64.1,63.1,82,79,77,29.98,29.96,0,0,0,0.00
2013-6-2,92.2,76.9,67.2,73.3,67.4,63.3,89,74,47,29.89,29.73,1,0,1,0.00
2013-6-3,76.0,68.3,61.7,69.7,63.7,49.8,91,85,65,29.85,29.76,1,0,1,0.57
2013-6-4,73.2,61.4,49.5,54.1,48.2,43.1,83,63,43,30.10,29.83,0,0,0,0.00
2013-6-5,77.2,62.6,51.7,60.3,50.7,45.1,83,67,40,30.19,30.09,0,0,0,0.00
2013-6-6,74.8,63.1,52.5,58.5,52.9,48.3,87,70,49,30.20,30.10,0,0,0,0.00
2013-6-7,59.0,56.0,53.8,56.3,53.1,51.2,92,90,87,30.10,29.80,0,0,0,2.35
2013-6-8,78.8,62.9,53.3,68.1,57.7,50.6,91,84,67,30.01,29.62,0,0,0,0.60
2013-6-9,83.0,67.1,55.1,64.6,57.9,51.9,90,74,47,30.17,30.01,0,0,0,0.00
2013-6-10,69.5,62.2,56.5,61.9,57.6,52.7,90,85,73,30.20,30.01,0,0,0,0.83
2013-6-11,63.4,59.0,56.7,59.4,55.8,53.8,92,89,85,30.01,29.58,0,0,0,1.29
2013-6-12,71.5,62.8,57.4,59.8,55.7,52.7,92,78,61,29.82,29.56,0,0,0,0.00
2013-6-13,62.7,56.5,51.9,58.4,52.7,48.8,92,87,82,29.82,29.67,0,0,0,1.08
2013-6-14,69.8,59.1,51.4,62.0,54.2,48.6,90,84,65,29.77,29.63,0,0,0,0.92
2013-6-15,80.0,66.0,55.3,59.8,52.9,46.9,86,65,37,29.95,29.77,0,0,0,0.00
2013-6-16,74.8,65.1,52.4,64.3,57.1,47.8,85,76,56,29.95,29.72,0,0,0,0.00
2013-6-17,88.5,69.9,59.7,68.9,61.0,55.6,88,76,45,29.91,29.77,0,0,0,0.33
2013-6-18,79.8,63.4,59.0,69.8,59.1,55.4,89,86,71,29.94,29.86,0,0,0,0.97
2013-6-19,75.6,63.3,55.6,62.3,55.5,51.7,88,77,49,30.15,29.90,0,0,0,0.05
2013-6-20,80.4,65.9,53.9,62.2,54.6,49.1,85,69,44,30.26,30.15,0,0,0,0.00
2013-6-21,86.5,69.4,55.5,69.9,61.1,51.1,85,76,52,30.26,30.19,0,0,0,0.00
2013-6-22,86.0,71.3,60.9,69.3,61.8,55.6,83,73,48,30.23,30.12,1,0,1,0.00
2013-6-23,90.8,75.3,62.4,77.2,66.8,57.2,83,75,60,30.17,30.00,0,0,0,0.00
2013-6-24,93.5,78.8,68.5,78.0,70.4,64.0,86,76,55,30.03,29.88,0,0,0,0.08
2013-6-25,92.8,77.2,66.5,76.7,68.9,62.2,87,77,52,29.94,29.74,0,0,0,0.00
2013-6-26,86.5,75.5,69.1,75.0,68.8,64.4,85,80,62,29.85,29.72,0,0,0,0.00
2013-6-27,70.9,66.2,63.5,65.8,61.7,59.2,86,85,83,29.86,29.75,0,0,0,0.15
2013-6-28,83.3,70.8,62.6,75.1,65.5,58.4,87,84,73,29.76,29.49,1,0,1,0.32
2013-6-29,84.2,74.3,69.6,74.0,67.9,64.5,85,81,68,29.72,29.51,11,0,11,0.00
2013-6-30,85.5,75.3,69.0,75.9,69.5,64.3,86,82,71,29.94,29.72,13,0,13,0.00
2013-7-1,82.1,74.5,71.0,76.1,69.7,66.5,86,85,81,30.08,29.94,9,0,9,0.09
2013-7-2,82.3,74.8,66.5,76.0,69.9,62.1,86,85,78,30.19,30.07,9,0,9,0.00
2013-7-3,91.2,75.4,64.4,79.6,69.4,60.1,86,82,66,30.21,30.14,11,0,11,0.00
2013-7-4,95.8,81.1,71.5,81.7,73.6,67.1,86,79,58,30.20,30.09,0,0,0,0.00
2013-7-5,96.9,82.6,74.4,80.7,74.4,69.6,85,77,54,30.16,30.03,9,0,9,0.00
2013-7-6,94.3,80.8,73.3,78.6,73.1,68.7,86,78,56,30.08,29.98,4,0,4,0.00
2013-7-7,93.5,78.2,70.0,80.1,71.7,65.3,86,81,60,30.02,29.90,0,0,0,0.00
2013-7-8,92.0,77.3,68.1,78.6,70.7,63.8,86,81,55,30.06,29.91,11,0,11,0.01
2013-7-9,74.3,69.4,65.9,69.3,64.9,61.6,86,86,84,30.10,30.04,7,0,7,0.01
2013-7-10,86.3,74.1,66.8,77.5,68.9,62.5,86,84,75,30.07,29.80,4,0,4,0.08
2013-7-11,79.4,74.5,71.1,74.5,69.8,66.7,86,85,83,29.92,29.78,3,0,3,0.15
2013-7-12,76.0,69.7,65.6,67.8,63.8,59.5,87,82,73,30.19,29.92,6,0,6,0.00
2013-7-13,75.5,68.8,65.5,70.9,64.3,60.7,86,86,84,30.31,30.19,0,0,0,0.05
2013-7-14,71.4,71.0,70.6,66.7,66.3,65.9,85,85,85,30.30,30.29,0,0,0,0.00
2013-7-15,93.1,80.8,73.4,79.6,73.1,67.9,84,78,57,30.21,30.09,0,0,0,0.00
2013-7-16,95.7,81.7,71.5,76.8,70.9,65.7,83,71,50,30.16,30.10,0,0,0,0.00
2013-7-17,98.3,82.5,72.1,79.2,72.2,66.2,82,72,46,30.18,30.00,0,0,0,0.00
2013-7-18,99.8,84.5,76.0,79.3,74.3,69.7,81,72,47,30.01,29.92,0,0,0,0.00
2013-7-19,103.3,86.1,75.3,81.5,75.3,69.4,83,72,45,29.94,29.72,0,0,0,0.00
2013-7-20,95.8,82.7,73.7,80.4,74.2,66.2,82,76,54,29.81,29.65,0,0,0,0.00
2013-7-21,84.5,75.6,69.9,71.5,66.9,63.1,82,75,61,29.98,29.81,0,0,0,0.00
2013-7-22,85.3,73.4,66.4,73.9,66.7,61.4,84,80,67,30.01,29.88,0,0,0,0.00
2013-7-23,80.4,72.7,69.6,75.5,67.8,64.2,85,85,82,29.88,29.54,0,0,0,1.53
2013-7-24,84.8,75.0,66.8,75.3,67.8,57.3,87,79,61,29.95,29.58,0,0,0,0.00
2013-7-25,66.7,60.5,58.6,57.9,54.8,51.1,87,82,71,30.10,29.95,0,0,0,0.53
2013-7-26,70.5,63.9,59.3,66.7,59.8,55.1,88,86,86,30.06,29.95,0,0,0,0.48
2013-7-27,84.5,69.9,59.1,72.4,63.8,54.9,88,82,60,30.07,29.99,0,0,0,0.00
2013-7-28,86.0,72.2,65.0,74.2,66.9,60.8,87,83,65,30.02,29.95,0,0,0,0.00
2013-7-29,85.4,72.4,66.5,74.9,66.9,61.8,87,83,71,30.04,29.96,0,0,0,0.55
2013-7-30,83.7,69.5,59.8,67.4,61.4,55.6,88,76,49,30.10,30.03,0,0,0,0.00
2013-7-31,82.3,70.2,61.6,67.8,62.2,57.6,89,77,51,30.14,30.03,0,0,0,0.00
2013-8-1,81.0,69.3,62.1,70.1,63.4,57.9,87,82,64,30.06,29.88,0,0,0,0.00
2013-8-2,83.3,70.6,64.5,71.0,64.1,59.9,87,80,56,29.89,29.80,0,0,0,0.22
2013-8-3,78.5,69.1,63.4,68.6,63.3,59.1,88,82,64,29.87,29.78,0,0,0,0.00
2013-8-4,82.3,67.7,58.4,64.5,59.1,54.5,89,75,49,29.90,29.77,0,0,0,0.00
2013-8-5,77.0,64.7,56.3,56.6,51.3,45.8,87,64,35,30.05,29.89,0,0,0,0.00
2013-8-6,81.6,65.9,52.9,63.2,54.7,48.4,86,69,42,30.15,30.05,0,0,0,0.00
2013-8-7,82.3,67.2,55.5,62.2,57.2,51.6,87,72,40,30.19,30.11,0,0,0,0.00
2013-8-8,65.0,64.1,63.3,60.6,59.2,58.0,86,84,82,30.13,30.08,0,0,0,0.00
2013-8-9,75.0,72.5,70.9,70.2,67.9,66.2,87,86,84,30.03,29.76,0,0,0,0.98
2013-8-10,82.5,72.3,63.1,68.8,62.5,54.8,88,73,43,30.01,29.79,0,0,0,0.01
2013-8-11,81.3,67.0,57.1,64.5,57.6,52.2,87,73,46,30.08,30.00,0,0,0,0.00
2013-8-12,83.5,69.7,60.2,67.5,61.1,56.3,87,75,49,30.03,29.92,0,0,0,0.00
2013-8-13,73.1,67.5,63.5,67.6,63.1,59.1,87,86,79,29.93,29.69,0,0,0,0.01
2013-8-14,76.2,66.0,59.5,60.9,56.1,51.3,87,71,51,29.97,29.67,0,0,0,0.00
2013-8-15,77.6,64.0,54.1,60.0,54.6,50.3,87,73,47,30.12,29.97,0,0,0,0.00
2013-8-16,80.1,65.7,55.5,63.6,56.9,51.6,87,75,48,30.20,30.11,0,0,0,0.00
2013-8-17,81.5,67.8,57.2,65.8,59.9,53.4,87,76,52,30.28,30.19,0,0,0,0.00
2013-8-18,79.8,67.6,59.0,67.0,61.1,55.1,87,80,56,30.28,30.09,0,0,0,0.00
2013-8-19,82.1,69.5,59.1,68.7,61.4,54.9,87,76,52,30.09,29.96,0,0,0,0.00
2013-8-20,86.5,73.2,64.2,68.9,63.7,59.9,86,74,47,30.09,29.98,0,0,0,0.00
2013-8-21,89.7,73.9,62.2,71.6,64.9,58.0,86,75,48,30.15,30.03,0,0,0,0.00
2013-8-22,69.2,68.1,67.0,64.2,63.7,62.7,86,86,85,30.04,30.02,0,0,0,0.00
2013-8-23,80.3,71.8,63.9,67.4,62.0,54.4,86,72,49,30.12,29.82,0,0,0,0.00
2013-8-24,77.8,65.3,56.0,57.3,52.5,46.9,83,65,38,30.34,30.13,0,0,0,0.00
2013-8-25,84.3,67.3,53.2,59.9,55.1,49.2,87,68,38,30.37,30.19,0,0,0,0.00
2013-8-26,81.0,70.7,63.9,68.5,63.3,57.8,85,78,60,30.20,29.88,0,0,0,0.00
2013-8-27,77.6,70.2,68.4,72.4,65.4,63.4,86,85,83,29.88,29.83,0,0,0,0.20
2013-8-28,84.1,71.8,63.8,72.4,64.9,59.1,86,79,60,29.98,29.85,0,0,0,0.00
2013-8-29,67.0,64.8,61.1,62.7,60.5,56.9,86,86,84,30.07,29.94,0,0,0,0.00
2013-8-30,82.3,69.5,61.4,70.6,63.6,57.2,87,82,65,30.03,29.83,0,0,0,0.00
2013-8-31,79.1,73.2,67.1,73.7,68.2,62.1,86,84,82,29.84,29.79,0,0,0,0.28
2013-9-1,76.5,71.8,68.4,71.2,66.7,63.4,84,84,83,29.89,29.80,0,0,0,2.06
2013-9-2,79.1,73.5,69.6,75.0,68.7,64.5,88,85,83,29.87,29.71,0,0,0,0.23
2013-9-3,79.3,71.5,62.7,72.5,66.6,58.8,88,85,73,29.82,29.69,0,0,0,0.01
2013-9-4,80.1,66.8,57.4,65.2,59.1,53.1,88,77,53,29.92,29.81,0,0,0,0.00
2013-9-5,69.4,62.5,53.6,61.5,56.0,47.7,88,80,61,30.15,29.87,0,0,0,0.05
2013-9-6,67.5,56.2,47.3,52.9,46.6,41.1,85,72,44,30.25,30.10,0,0,0,0.00
2013-9-7,77.2,62.1,48.1,62.7,53.3,44.3,87,75,45,30.10,29.86,0,0,0,0.00
2013-9-8,76.0,64.0,51.7,64.7,54.3,43.1,87,72,45,30.10,29.75,0,0,0,0.00
2013-9-9,68.6,56.7,45.9,54.3,47.5,41.6,86,73,46,30.25,30.09,0,0,0,0.00
2013-9-10,74.5,65.7,53.7,69.7,61.2,49.6,87,86,83,30.17,30.03,0,0,0,0.05
2013-9-11,90.5,77.9,68.0,79.4,71.1,62.6,87,80,63,30.07,29.94,0,0,0,0.00
2013-9-12,85.4,76.0,68.7,76.6,69.9,63.3,86,82,69,29.97,29.68,0,0,0,0.80
2013-9-13,76.9,68.2,60.0,70.5,63.1,54.8,87,84,75,29.76,29.57,0,0,0,0.12
2013-9-14,66.0,59.5,53.0,58.3,54.0,49.2,87,82,71,30.07,29.76,0,0,0,0.00
2013-9-15,69.7,58.2,50.2,58.3,51.7,46.6,88,80,58,30.17,30.06,0,0,0,0.00
2013-9-16,65.3,56.9,48.2,59.3,51.3,39.9,87,82,70,30.25,30.02,0,0,0,0.04
2013-9-17,59.7,50.5,41.2,47.9,42.1,36.9,86,74,50,30.43,30.25,0,0,0,0.00
2013-9-18,70.3,56.3,44.5,53.4,47.7,40.9,87,75,45,30.33,30.15,0,0,0,0.00
2013-9-19,74.7,60.4,47.5,62.0,52.7,43.4,90,77,51,30.15,30.04,0,0,0,0.00
2013-9-20,75.5,62.3,49.8,62.8,54.7,45.8,89,77,54,30.09,30.00,0,0,0,0.00
2013-9-21,72.3,64.4,55.4,65.5,59.0,50.6,86,83,71,30.03,29.72,0,0,0,0.00
2013-9-22,69.5,63.0,50.6,64.4,57.0,46.6,87,81,63,29.83,29.60,0,0,0,0.78
2013-9-23,61.8,52.5,45.2,50.6,44.6,41.2,87,75,58,30.01,29.83,0,0,0,0.00
2013-9-24,64.7,53.2,43.1,51.6,44.7,39.3,87,74,50,30.00,29.82,0,0,0,0.00
2013-9-25,65.3,55.5,46.0,56.2,49.0,42.0,90,79,64,29.99,29.88,0,0,0,0.00
2013-9-26,63.1,56.7,53.0,53.6,50.4,48.5,86,80,64,30.13,29.99,0,0,0,0.00
2013-9-27,64.0,57.5,53.4,56.7,52.5,49.3,86,83,74,30.26,30.12,0,0,0,0.00
2013-9-28,70.5,58.3,50.4,60.1,52.4,46.3,86,81,62,30.33,30.25,0,0,0,0.00
2013-9-29,64.5,54.1,47.2,56.3,47.9,42.9,89,80,60,30.27,30.13,0,0,0,0.00
2013-9-30,64.1,55.2,49.0,54.2,49.3,44.3,86,81,64,30.13,29.96,0,0,0,0.00
2013-10-1,73.0,60.4,48.3,58.6,52.5,44.0,86,76,52,29.97,29.85,0,0,0,0.00
2013-10-2,77.3,65.0,54.3,64.3,57.6,49.6,86,78,61,29.96,29.84,0,0,0,0.00
2013-10-3,73.3,62.4,54.0,59.6,53.9,49.8,86,75,46,30.09,29.96,0,0,0,0.00
2013-10-4,61.7,57.9,51.7,56.6,52.8,47.3,86,83,77,30.10,30.03,0,0,0,0.26
2013-10-5,67.5,61.4,57.8,61.9,56.5,52.7,87,84,79,30.13,30.05,0,0,0,0.02
2013-10-6,60.3,57.4,55.5,55.8,52.5,50.6,86,84,83,30.22,30.11,0,0,0,0.45
2013-10-7,74.0,64.7,56.6,69.1,59.9,51.8,87,84,82,30.13,29.82,0,0,0,0.28
2013-10-8,63.8,55.9,48.3,54.9,48.6,43.2,87,77,53,30.38,29.91,0,0,0,0.00
2013-10-9,60.2,50.6,43.7,50.8,44.4,39.8,87,80,58,30.48,30.37,0,0,0,0.00
2013-10-10,61.9,52.4,44.5,55.1,47.9,40.6,86,84,77,30.37,30.18,0,0,0,0.00
2013-10-11,67.4,56.7,50.5,59.3,51.0,45.9,86,81,72,30.18,30.09,0,0,0,0.00
2013-10-12,59.5,52.9,49.4,55.2,48.5,45.1,89,85,82,30.30,30.15,0,0,0,0.00
2013-10-13,58.9,52.1,45.6,51.2,46.8,41.6,86,82,74,30.44,30.37,0,0,0,0.00
2013-10-14,60.9,49.6,37.9,48.9,42.9,34.1,86,78,56,30.41,30.26,0,0,0,0.00
2013-10-15,65.4,55.7,48.3,57.2,49.9,43.9,86,81,69,30.27,30.18,0,0,0,0.00
2013-10-16,60.0,55.1,50.4,55.1,50.3,45.7,86,84,81,30.18,29.91,0,0,0,0.00
2013-10-17,69.9,60.1,51.7,61.9,54.4,46.4,85,81,74,29.92,29.73,0,0,0,0.02
2013-10-18,66.1,59.4,49.0,55.4,50.6,43.6,85,73,55,29.92,29.62,0,0,0,0.02
2013-10-19,64.9,53.2,42.5,49.1,44.9,38.3,85,75,49,29.98,29.75,0,0,0,0.00
2013-10-20,60.0,52.9,45.4,48.8,41.9,35.9,86,68,42,30.03,29.70,0,0,0,0.02
2013-10-21,64.3,51.5,39.7,46.5,41.8,35.6,85,71,47,30.12,30.00,0,0,0,0.00
2013-10-22,66.3,53.1,44.2,53.9,46.1,39.8,85,78,58,30.00,29.71,0,0,0,0.01
2013-10-23,50.4,45.2,38.5,40.0,37.1,34.4,86,74,56,29.80,29.60,0,0,0,0.00
2013-10-24,51.9,44.2,36.9,38.5,32.9,26.9,85,66,40,29.90,29.66,0,0,0,0.00
2013-10-25,48.2,40.8,34.9,35.6,31.6,29.3,86,70,50,30.17,29.90,0,0,0,0.00
2013-10-26,53.8,42.6,31.2,38.6,32.2,27.3,92,69,40,30.16,29.88,0,0,0,0.00
2013-10-27,53.7,46.8,39.7,40.3,36.4,31.8,85,68,49,30.07,29.81,0,0,0,0.01
2013-10-28,57.4,44.6,33.1,38.8,33.8,28.5,86,67,47,30.36,30.07,0,0,0,0.00
2013-10-29,46.9,38.6,32.3,31.1,26.9,23.3,82,64,41,30.45,30.35,0,0,0,0.00
2013-10-30,53.2,42.3,34.3,43.2,36.8,29.4,86,81,67,30.37,30.20,0,0,0,0.00
2013-10-31,60.1,48.9,35.9,55.5,44.2,31.9,86,84,80,30.25,29.80,0,0,0,0.05
2013-11-1,68.6,62.3,57.1,62.7,56.7,52.6,85,82,75,29.80,29.47,0,0,0,0.12
2013-11-2,64.7,55.8,48.5,52.9,46.3,43.6,85,72,47,29.73,29.59,0,0,0,0.00
2013-11-3,52.0,42.0,32.4,46.6,31.3,19.2,84,67,42,30.42,29.72,0,0,0,0.00
2013-11-4,40.9,33.6,28.2,23.3,20.6,17.6,77,60,39,30.71,30.42,0,0,0,0.00
2013-11-5,47.9,37.7,27.3,34.4,28.8,22.4,85,71,52,30.72,30.52,0,0,0,0.00
2013-11-6,58.4,48.6,38.7,47.5,41.5,34.1,86,77,59,30.52,30.04,0,0,0,0.00
2013-11-7,64.9,53.5,40.6,58.2,48.4,34.3,86,83,76,30.05,29.68,0,0,0,0.23
2013-11-8,47.7,39.5,33.0,36.5,29.9,24.1,82,69,54,30.11,29.82,0,0,0,0.00
2013-11-9,43.9,37.4,30.8,31.7,27.2,23.8,79,67,48,30.22,30.04,0,0,0,0.00
2013-11-10,53.9,44.8,38.5,43.3,36.9,31.6,85,74,57,30.04,29.75,0,0,0,0.03
2013-11-11,44.2,40.8,38.1,33.9,29.8,28.5,70,65,58,30.11,29.88,0,0,0,0.00
2013-11-12,47.8,35.8,26.9,39.4,27.0,17.6,85,71,59,30.20,29.90,0,0,0,0.01
2013-11-13,35.0,28.7,23.5,19.3,17.2,14.2,77,63,45,30.30,30.18,0,0,0,0.00
2013-11-14,49.3,38.1,26.6,28.2,23.2,18.1,76,56,40,30.18,30.06,0,0,0,0.00
2013-11-15,58.9,45.3,32.7,34.6,26.1,19.0,75,49,25,30.21,30.11,0,0,0,0.00
2013-11-16,57.1,45.9,38.7,35.7,31.3,27.1,79,59,32,30.33,30.19,0,0,0,0.00
2013-11-17,54.1,45.2,36.2,47.9,40.1,32.1,85,82,73,30.32,29.84,0,0,0,0.03
2013-11-18,63.6,57.2,47.6,54.6,46.7,33.6,84,68,52,29.84,29.55,0,0,0,0.10
2013-11-19,47.6,39.8,30.9,34.2,24.9,18.3,64,55,44,30.28,29.66,0,0,0,0.00
2013-11-20,39.9,32.6,27.4,20.5,17.1,14.8,67,53,36,30.63,30.28,0,0,0,0.00
2013-11-21,45.8,35.8,26.0,31.6,22.8,16.3,76,60,42,30.65,30.39,0,0,0,0.00
2013-11-22,46.4,43.2,38.5,40.5,37.7,31.6,84,81,76,30.39,29.83,0,0,0,0.01
2013-11-23,46.5,40.0,29.1,40.6,28.2,18.3,84,64,42,29.92,29.79,0,0,0,0.00
2013-11-24,29.0,23.8,20.0,20.6,7.6,-1.6,77,51,30,30.20,29.80,0,0,0,0.00
2013-11-25,32.0,24.6,16.7,19.4,7.1,-1.2,66,48,28,30.39,30.20,0,0,0,0.00
2013-11-26,40.3,35.4,29.5,31.9,24.1,18.6,84,64,50,30.33,30.03,0,0,0,0.00
2013-11-27,61.1,50.4,36.4,53.8,44.3,31.9,85,80,77,30.03,29.22,0,0,0,0.00
2013-11-28,36.9,30.5,24.5,31.9,18.7,10.9,84,62,43,30.45,29.48,0,0,0,0.00
2013-11-29,33.4,27.4,21.3,18.5,14.5,6.9,74,59,46,30.75,30.45,0,0,0,0.00
2013-11-30,32.0,25.1,16.8,22.3,15.3,9.5,76,66,55,30.80,30.43,0,0,0,0.00
2013-12-1,35.6,33.3,29.2,30.6,28.4,22.3,84,82,75,30.43,30.02,0,0,0,0.00
2013-12-2,39.2,37.0,35.6,33.9,31.7,30.3,81,81,80,30.02,29.93,0,0,0,0.00
2013-12-3,46.2,38.3,34.3,39.2,32.9,29.8,85,81,72,29.96,29.85,0,0,0,0.00
2013-12-4,44.4,36.2,29.5,34.2,29.7,25.4,85,78,61,30.20,29.95,0,0,0,0.00
2013-12-5,53.9,40.8,33.3,47.5,36.0,29.0,85,83,78,30.21,29.91,0,0,0,0.00
2013-12-6,55.3,48.6,34.8,48.6,42.8,30.4,85,80,76,30.13,29.86,0,0,0,0.00
2013-12-7,34.7,34.0,33.4,30.2,29.6,28.8,84,84,83,30.11,30.07,0,0,0,0.00
2013-12-8,31.4,28.5,23.9,22.8,19.3,17.0,82,69,58,30.60,30.46,0,0,0,0.00
2013-12-9,35.5,31.5,26.7,30.5,26.5,18.2,85,82,64,30.50,29.89,0,0,0,0.22
2013-12-10,33.1,30.3,23.1,28.2,25.5,18.5,86,82,82,30.01,29.78,0,0,0,0.04
2013-12-11,30.3,24.2,19.6,23.4,19.4,16.0,86,82,73,30.23,30.01,0,0,0,0.00
2013-12-12,24.7,20.6,13.2,18.6,10.8,6.4,84,67,47,30.29,30.08,0,0,0,0.00
2013-12-13,29.4,21.9,12.2,18.9,13.2,6.7,81,69,57,30.39,30.01,0,0,0,0.00
2013-12-14,20.4,15.0,11.4,16.4,6.6,-0.4,85,70,52,30.60,30.15,0,0,0,0.27
2013-12-15,33.5,27.1,20.5,28.6,22.9,16.5,92,84,82,30.15,29.44,0,0,0,0.72
2013-12-16,27.2,22.5,15.1,19.4,15.1,9.3,86,74,57,30.21,29.75,0,0,0,0.00
2013-12-17,18.2,12.9,6.1,14.6,8.6,1.8,92,83,77,30.29,29.96,0,0,0,0.38
2013-12-18,30.0,20.4,15.7,24.1,16.6,12.0,92,85,78,29.96,29.88,0,0,0,0.01
2013-12-19,40.1,32.0,23.5,30.5,25.6,19.4,85,78,65,30.12,29.96,0,0,0,0.00
2013-12-20,50.3,39.8,32.0,38.4,32.7,27.5,84,76,59,30.12,29.92,0,0,0,0.00
2013-12-21,54.3,46.4,39.8,47.2,41.0,34.8,84,81,76,29.97,29.86,0,0,0,0.00
2013-12-22,60.6,46.5,36.1,53.7,41.0,31.1,84,81,78,30.02,29.77,0,0,0,0.00
2013-12-23,37.1,34.4,32.9,31.9,29.5,28.0,82,82,81,30.09,29.96,0,0,0,0.60
2013-12-24,37.3,32.0,26.8,32.0,24.7,16.1,86,74,58,30.20,30.05,0,0,0,0.00
2013-12-25,26.7,19.8,16.0,17.5,7.9,4.3,72,60,48,30.54,30.20,0,0,0,0.00
2013-12-26,31.2,25.1,16.8,26.7,20.0,9.2,86,81,69,30.50,30.10,0,0,0,0.02
2013-12-27,34.3,28.2,22.7,23.9,21.3,18.8,92,75,62,30.29,30.20,0,0,0,0.00
2013-12-28,44.9,33.7,23.3,30.5,25.9,19.5,85,74,55,30.23,30.01,0,0,0,0.00
2013-12-29,40.5,35.9,31.4,35.8,30.8,26.1,84,82,77,30.04,29.40,0,0,0,1.23
2013-12-30,38.6,35.1,32.3,33.6,28.2,20.2,85,77,52,29.93,29.53,0,0,0,0.00